Volver al catálogo

COSMOS 1275 DEB

ActivoPO
NORAD 12740·DEBRIS·🇷🇺 Russia

Lanzado Jun 4, 1981 desde Plesetsk Cosmodrome

Loading…

Próximos Pases (próximas 24 horas)

TLE

ActualizadoSource: Space-Track

Época: Sep 14, 2026, 09:19 UTC

1 12740U 81053CH  26257.38823843  .00002504  00000-0  75909-3 0  9996
2 12740  82.8353 126.6595 0010497 206.5069 327.6629 14.41930626310171

Sigue COSMOS 1275 DEB en tiempo real con AllMySat

Download on the App Store